This is the latest recevied weather packets stored in our database for station/object KC1BRV. If no packets are shown the sender has not sent any weather packets the latest 10 day(s).
| Time | Temp. | Humidity | Pressure | Rain* | Wind** | Luminosity | Snow |
|---|---|---|---|---|---|---|---|
| 1777902594 | 16.67° C | 38% | 1012.7 hPa | 0 mm | - | 142 W/m² | - |
| 1777902291 | 16.67° C | 39% | 1012.8 hPa | 0 mm | - | 175 W/m² | - |
| 1777901989 | 16.67° C | 39% | 1012.7 hPa | 0 mm | - | 253 W/m² | - |
| 1777901687 | 16.67° C | 39% | 1012.8 hPa | 0 mm | - | 176 W/m² | - |
| 1777901384 | 16.67° C | 39% | 1012.7 hPa | 0 mm | - | 245 W/m² | - |
| 1777901082 | 16.11° C | 42% | 1013.1 hPa | 0 mm | - | 417 W/m² | - |
| 1777900778 | 15.56° C | 41% | 1012.9 hPa | 0 mm | - | 223 W/m² | - |
| 1777900476 | 16.11° C | 41% | 1013.1 hPa | 0 mm | - | 138 W/m² | - |
| 1777900173 | 15.56° C | 42% | 1013 hPa | 0 mm | - | 321 W/m² | - |
| 1777899869 | 15° C | 43% | 1012.9 hPa | 0 mm | - | 311 W/m² | - |
| 1777899566 | 15° C | 43% | 1013 hPa | 0 mm | - | 173 W/m² | - |
| 1777899264 | 15° C | 44% | 1013.2 hPa | 0 mm | - | 113 W/m² | - |
| 1777898961 | 14.44° C | 44% | 1013.2 hPa | 0 mm | - | 190 W/m² | - |
| 1777898658 | 14.44° C | 44% | 1013.3 hPa | 0 mm | - | 187 W/m² | - |
| 1777898355 | 14.44° C | 44% | 1013.3 hPa | 0 mm | - | 139 W/m² | - |
| 1777898053 | 13.89° C | 44% | 1013.4 hPa | 0 mm | - | 159 W/m² | - |
| 1777897749 | 13.33° C | 46% | 1013.4 hPa | 0 mm | - | 275 W/m² | - |
| 1777897445 | 13.33° C | 45% | 1013.4 hPa | 0 mm | - | 113 W/m² | - |
| 1777897141 | 13.33° C | 46% | 1013.3 hPa | 0 mm | - | 125 W/m² | - |
| 1777896837 | 13.33° C | 47% | 1013.4 hPa | 0 mm | - | 133 W/m² | - |
| 1777896535 | 12.78° C | 46% | 1013.4 hPa | 0 mm | - | 106 W/m² | - |
| 1777896232 | 12.78° C | 48% | 1013.4 hPa | 0 mm | - | 134 W/m² | - |
| 1777895930 | 12.78° C | 47% | 1013.4 hPa | 0 mm | - | 104 W/m² | - |
| 1777895627 | 12.22° C | 48% | 1013.4 hPa | 0 mm | - | 146 W/m² | - |
| 1777895324 | 12.22° C | 49% | 1013.3 hPa | 0 mm | - | 107 W/m² | - |
* Rain latest hour (hover to see other rain measurements)
** Current wind speed in m/s (hover to see current wind gust speed)